Marshfield, WI

1:45 AM CDT on June 25, 2018 (GMT -0500)
Marshfield Municipal

Weather History for KMFI - June, 2014

Change the Weather History Date:

Thursday, June 19, 2014

  Actual Average Record
Temperature  
Mean Temperature 68 °F -  
Max Temperature 73 °F 76 °F 92 °F (1933)
Min Temperature 62 °F 52 °F 41 °F (1916)
Cooling Degree Days 2    
Growing Degree Days 18 (Base 50)    
Moisture  
Dew Point 61 °F    
Average Humidity 84    
Maximum Humidity 90    
Minimum Humidity 73    
Precipitation  
Precipitation 0.00 in - - ()
Sea Level Pressure  
Sea Level Pressure 30.06 in    
Wind  
Wind Speed 11 mph (ESE)    
Max Wind Speed 20 mph    
Max Gust Speed 28 mph    
Visibility 9 miles    
Events Rain , Thunderstorm    
Averages and records for this station are not official NWS values.
T = Trace of Precipitation, MM = Missing Value Source: NWS Daily Summary

Daily Weather History Graph

Daily Weather History Graph

Search for Another Location

Airport or City:

Astronomy

Jun. 19, 2014 Rise Set
Actual Time 5:15 AM CDT 8:49 PM CDT
Civil Twilight 4:38 AM CDT 9:26 PM CDT
Nautical Twilight 3:49 AM CDT 10:15 PM CDT
Astronomical Twilight 2:44 AM CDT 11:19 PM CDT
Moon 12:37 AM CDT (6/19) 1:03 PM CDT (6/19)
Length of Visible Light 16h 48m
Length of Day
15h 34m
Waning Gibbous, 51% of the Moon is Illuminated
Jun 19
Waning Gibbous
Jun 19
Last Quarter
Jun 27
New
Jul 5
First Quarter
Jul 12
Full

Hourly Weather History & Observations

Time (CDT) Temp. Dew Point Humidity Pressure Visibility Wind Dir Wind Speed Gust Speed Precip Events Conditions
12:04 AM 64.0 °F 61.0 °F 90% 30.05 in 10.0 mi East 6.9 mph - N/A   Mostly Cloudy
12:39 AM 63.0 °F 60.1 °F 90% 30.05 in 9.0 mi East 6.9 mph - N/A   Scattered Clouds
12:54 AM 63.0 °F 60.1 °F 90% 30.05 in 9.0 mi East 6.9 mph - N/A   Clear
1:54 AM 63.0 °F 59.0 °F 87% 30.04 in 10.0 mi East 15.0 mph - N/A   Partly Cloudy
2:08 AM 63.0 °F 60.1 °F 90% 30.07 in 10.0 mi ESE 11.5 mph - N/A   Mostly Cloudy
2:54 AM 63.0 °F 60.1 °F 90% 30.09 in 10.0 mi South 9.2 mph - N/A   Overcast
3:11 AM 63.0 °F 60.1 °F 90% 30.08 in 10.0 mi SE 11.5 mph - N/A   Overcast
3:54 AM 63.0 °F 60.1 °F 90% 30.04 in 10.0 mi East 15.0 mph 20.7 mph N/A   Overcast
4:01 AM 63.0 °F 59.0 °F 87% 30.04 in 10.0 mi East 13.8 mph - N/A   Mostly Cloudy
4:17 AM 63.0 °F 60.1 °F 90% 30.04 in 10.0 mi ESE 12.7 mph 19.6 mph N/A   Overcast
5:54 AM 63.0 °F 60.1 °F 90% 30.04 in 8.0 mi ESE 13.8 mph - N/A   Overcast
6:24 AM 63.0 °F 60.1 °F 90% 30.05 in 7.0 mi ESE 16.1 mph 24.2 mph N/A   Overcast
6:54 AM 64.0 °F 61.0 °F 90% 30.07 in 6.0 mi ESE 11.5 mph - N/A   Overcast
7:29 AM 64.0 °F 61.0 °F 90% 30.08 in 5.0 mi ESE 11.5 mph - N/A   Overcast
7:54 AM 64.9 °F 62.1 °F 90% 30.09 in 5.0 mi ESE 12.7 mph 23.0 mph N/A   Overcast
8:09 AM 64.9 °F 62.1 °F 90% 30.10 in 6.0 mi ESE 12.7 mph - N/A   Overcast
8:54 AM 64.9 °F 62.1 °F 90% 30.09 in 6.0 mi ESE 12.7 mph - N/A   Overcast
9:01 AM 64.9 °F 62.1 °F 90% 30.10 in 6.0 mi SE 9.2 mph - N/A   Overcast
10:54 AM 68.0 °F 63.0 °F 84% 30.13 in 7.0 mi ESE 8.1 mph - N/A   Overcast
11:54 AM 68.0 °F 63.0 °F 84% 30.12 in 7.0 mi ESE 11.5 mph - N/A   Overcast
12:41 PM 69.1 °F 62.1 °F 78% 30.12 in 9.0 mi ESE 15.0 mph - N/A   Overcast
12:54 PM 69.1 °F 62.1 °F 78% 30.12 in 9.0 mi ESE 16.1 mph - N/A   Overcast
1:54 PM 70.0 °F 63.0 °F 78% 30.09 in 9.0 mi ESE 17.3 mph 23.0 mph N/A   Overcast
2:54 PM 71.1 °F 63.0 °F 75% 30.04 in 10.0 mi SE 19.6 mph 27.6 mph N/A   Overcast
3:23 PM 72.0 °F 64.0 °F 76% 30.04 in 10.0 mi ESE 17.3 mph 26.5 mph N/A   Mostly Cloudy
3:54 PM 73.0 °F 64.0 °F 73% 30.04 in 10.0 mi SE 19.6 mph 25.3 mph N/A   Overcast
4:51 PM 73.4 °F 64.4 °F 73% 30.03 in 10.0 mi ESE 13.8 mph 24.2 mph N/A   Scattered Clouds
4:54 PM 73.0 °F 64.0 °F 73% 30.03 in 10.0 mi ESE 13.8 mph 24.2 mph N/A   Scattered Clouds
5:54 PM 72.0 °F 63.0 °F 73% 30.01 in 10.0 mi East 12.7 mph 21.9 mph N/A   Overcast
6:54 PM 71.1 °F 62.1 °F 73% 30.00 in 10.0 mi East 12.7 mph - N/A   Overcast
7:54 PM 70.0 °F 61.0 °F 73% 30.03 in 10.0 mi SE 9.2 mph - N/A   Overcast
8:28 PM 69.1 °F 61.0 °F 75% 30.03 in 10.0 mi SE 10.4 mph - 0.00 in   Overcast
8:45 PM 69.1 °F 61.0 °F 75% 30.03 in 10.0 mi East 6.9 mph - 0.00 in Thunderstorm Overcast
8:54 PM 69.1 °F 61.0 °F 75% 30.03 in 10.0 mi East 6.9 mph - 0.00 in   Overcast
9:54 PM 66.0 °F 62.1 °F 87% 30.04 in 8.0 mi ENE 9.2 mph - N/A Rain Light Rain
10:54 PM 64.9 °F 60.1 °F 84% 30.04 in 10.0 mi East 10.4 mph - N/A   Overcast
11:51 PM 62.6 °F 59.0 °F 88% 30.02 in 10.0 mi East 10.4 mph - N/A   Overcast
11:54 PM 63.0 °F 59.0 °F 87% 30.02 in 10.0 mi East 9.2 mph - N/A   Overcast